{"data":{"norad_id":66718,"epoch":"2026-05-25T03:08:14.997696Z","epoch_age_seconds":67229,"freshness":"FRESH","line1":"1 66718U 25276BE  26145.13072914  .00005579  00000+0  26769-3 0  9993","line2":"2 66718  97.4223 219.0135 0006010  98.1194 262.0722 15.19265898 26910","mean_motion":15.19265898,"eccentricity":0.000601,"inclination_deg":97.4223,"raan_deg":219.0135,"arg_perigee_deg":98.1194,"mean_anomaly_deg":262.0722,"bstar":0.00026769,"rev_number":2691,"period_min":94.78261849329,"perigee_km":503.9193686769,"apogee_km":512.19657503307,"semimajor_km":6886.194971855,"source":"CELESTRAK","updated_at":"2026-05-25T13:38:13.348667Z"}}